Location: Unspecified
(0.0000°N, 0.0000°E)
Time: 08:22:29
(UTC+00:00)

Vanguard 2 - Pass Details

Date: 25 October 2021
Orbit: 554 x 2936 km, 32.9° (Epoch: 06 December)

Event Time Altitude Azimuth Distance (km) Brightness Sun altitude
Rises 08:22:58 0° 323° (NW) 2,881 10.1 38.6°
Reaches altitude 10° 08:25:39 10° 337° (NNW) 1,861 9.3 39.3°
Maximum altitude 08:29:00 25° 34° (NE) 1,132 8.9 40.1°
Drops below altitude 10° 08:32:24 10° 91° (E) 1,889 10.7 40.9°
Sets 08:35:09 0° 105° (ESE) 2,935 11.4 41.6°
